Regional Weather Roundup
Issued by NWS Charleston, SC

Current Version | Previous Version | Graphics & Text | Print | Product List | Glossary On
Versions: 1 2 3 4 5 6 7 8 9 10 11 12 13 14 15 16 17 18 19 20 21 22 23 24 25 26 27 28 29 30 31 32 33 34 35 36 37 38 39 40 41 42 43 44 45 46 47 48 49 50
000
ASUS42 KCHS 141526
RWRCHS

REGIONAL WEATHER ROUNDUP
NATIONAL WEATHER SERVICE CHARLESTON SC
1000 AM EST THU DEC 14 2017

NOTE: "FAIR" INDICATES FEW OR NO CLOUDS BELOW 12,000 FEET WITH NO
SIGNIFICANT WEATHER AND/OR OBSTRUCTIONS TO VISIBILITY.

NOT ALL STATIONS ARE QUALITY CONTROLLED. USE DATA WITH CAUTION...
ESPECIALLY DEWPOINT OBSERVATIONS.

SCZ027-030-031-034>040-042>050-141600-
...SOUTHEAST SOUTH CAROLINA...

CITY           SKY/WX    TMP DP  RH WIND       PRES   REMARKS
N CHARLESTON   MOSUNNY   50  33  52 W12       29.95R
WATERFRONT PRK   N/A     49  34  56 W7        29.81R
JOHNS ISLAND   FAIR      50  34  53 W12       29.96S
PINOPOLIS        N/A     45  34  65 W14       29.86R
MONCKS CORNER  FAIR      48  30  49 SW7       29.94R
SUMMERVILLE    FAIR      46  32  57 SW7       29.96R
BEAUFORT MCAS  CLOUDY    51  36  56 W8        29.98R
BEAUFORT ARPT  FAIR      52  36  54 W13       29.97S
HILTON HEAD IS SUNNY     50  36  57 SW12      29.99R
WALTERBORO     CLOUDY    46  32  57 W8        29.97R
ALLENDALE      FAIR      46  34  61 VRB5      29.95R

...SOUTHERN MIDLANDS AND PEE DEE...

CITY           SKY/WX    TMP DP  RH WIND       PRES   REMARKS
GEORGETOWN     FAIR      52  32  46 W9        29.94R
KINGSTREE      FAIR      50  30  46 SW9       29.92R
ORANGEBURG     SUNNY    N/A N/A N/A MISG      29.92R
BARNWELL         N/A     50  34  53 W8G15     29.94R
AIKEN          FAIR      46  30  53 SW12      29.94R
MANNING        FAIR      50  30  46 MISG      29.92S
COLUMBIA       MOSUNNY   50  31  48 SW8       29.90R
SUMTER         SUNNY     49  27  43 W9        29.88R
FLORENCE       SUNNY     47  28  47 W12       29.90R
MYRTLE BEACH   SUNNY     50  30  46 W14       29.92R
N MYRTLE BEACH SUNNY     50  29  44 W13G18    29.89R

$$

GAZ063-065-086>088-099>101-113>116-118-119-134>141-150-141600-
...SOUTHEAST GEORGIA...

CITY           SKY/WX    TMP DP  RH WIND       PRES   REMARKS
SAVANNAH ARPT  CLOUDY    52  36  54 W10       29.99R
HUNTER AAF     SUNNY     51  37  58 W10       29.97R
FORT STEWART   SUNNY     51  36  57 W10       29.97R
STATESBORO     CLOUDY    52  31  44 W7        29.97S
SYLVANIA       CLOUDY    49  36  60 W8        29.97R
CLAXTON        FAIR      52  37  56 SW7       29.99R

...CSRA...CENTRAL AND FAR SOUTHEAST GEORGIA...

CITY           SKY/WX    TMP DP  RH WIND       PRES   REMARKS
THOMSON        SUNNY     49  30  49 N6        29.97S
AUGUSTA-BUSH   SUNNY     49  31  49 W9        29.92S
AUGUSTA-DANIEL SUNNY     50  30  46 W7        29.92R
SWAINSBORO     FAIR      50  34  53 W7        29.97S
VIDALIA        MOSUNNY   52  37  58 W3        29.99R
EASTMAN        FAIR      51  26  37 W7        30.02R
HAZLEHURST     FAIR      54  23  30 W6        29.99R
ALMA           SUNNY     50  37  61 W9        30.00R
WAYCROSS       SUNNY     57  32  39 W10       30.02R
JESUP          FAIR      54  37  54 CALM      30.01
BAXLEY         FAIR      50  36  57 W6        30.00R
BRUNSWICK      SUNNY     54  36  50 W8        30.02S
SAINT SIMONS   SUNNY     54  39  57 W10       30.01R

$$

SCZ027-028-034-036>038-045-046-048>050-GAZ119-141-141600-
...LAKE AND SUPPLEMENTAL COASTAL OBSERVATIONS...

STATION/POSITION TIME  TEMP    WIND        PRES    WAVE   SWELL
                       AIR SEA DIR/SP/G            HT/PER HT/PER/DIR
                 (UTC) (F)     (DEG/KT/KT) (MB)    (FT/S) (FT/S/D)
WINYAH BAY       1430   48     270/ 10     1013.0R
LAKE MURRAY      1450   48     260/  7/ 11 1011.2R
ACE BASIN NERRS  1430   46     240/  3     1015.0R
FORT PULASKI     1500   50 53  280/  8/ 11 1015.5
SAPELO ISLAND    1500   52     260/ 10     1016.0

$$

ANZ835-935-AMZ111-154-330-350-352-354-370-450-454-472-141600-
...C-MAN AND BUOY OBSERVATIONS...

STATION/POSITION TIME  TEMP    WIND        PRES    WAVE   SWELL
                       AIR SEA DIR/SP/G            HT/PER HT/PER/DIR
                 (UTC) (F)     (DEG/KT/KT) (MB)    (FT/S) (FT/S/D)
BUOY 41004       1510      73  270/ 19/ 23 1014.3
BUOY 41008       1450   53 58  250/ 16/ 19 1015.7R   3/ 4
FOLLY BEACH CMAN 1500   49     260/  8/ 11 1014.8R
CAPERS NEARSHORE 1508   48 55  280/ 14/ 19 1013.8R
FRIPP NEARSHORE  1508   49 54  250/ 19/ 27 1014.3R


STATION/POSITION TIME  TEMP    WIND        PRES    WAVE   SWELL
                       AIR SEA DIR/SP/G            HT/PER HT/PER/DIR
                 (UTC) (F)     (DEG/KT/KT) (MB)    (FT/S) (FT/S/D)
5E ST. MARYS GA  1500      62                N/A     2/ 2
FRYING PAN BUOY  1510   56 67  270/ 17/ 23 1012.7
BUOY 41025       1510   56 73  270/ 17/ 23 1010.8
CAPE LOOKOUT NC  1500          260/ 17/ 19 1011.6R
BUOY 41002       1450   68 74  250/ 23/ 27 1013.6R  10/ 8
BUOY 41010       NOT AVBL
ST AUGUSTINE FL  1500   58 61  270/  7/  9 1018.1R


$$




USA.gov is the U.S. government's official web portal to all federal, state and local government web resources and services.